Regional Weather Roundup
Issued by NWS

Home | Current Version | Previous Version | Text Only | Print | Product List | Glossary Off
Versions: 1 2 3 4 5 6 7 8 9 10 11 12 13 14 15 16 17 18 19 20 21 22 23 24 25 26 27 28 29 30 31 32 33 34 35 36 37 38 39 40 41 42 43 44 45 46 47 48 49 50

000
ASUS43 KLMK 221210
RWRKY
KENTUCKY REGIONAL WEATHER ROUNDUP
NATIONAL WEATHER SERVICE LOUISVILLE KY
800 AM EDT FRI AUG 22 2014

NOTE "FAIR" INDICATES FEW OR NO CLOUDS BELOW 12,000 FEET
WITH NO SIGNIFICANT WEATHER AND/OR OBSTRUCTIONS TO VISIBILITY.

KYZ001>023-026-027-061>063-070>075-221300-
WESTERN AND SOUTH CENTRAL KENTUCKY

CITY           SKY/WX    TMP DP  RH WIND       PRES   REMARKS
PADUCAH        CLEAR     77  73  87 S6        30.04R
HENDERSON      CLEAR     75  72  88 SW6       30.00S
OWENSBORO      PTCLDY    75  74  97 S6        30.02R
HOPKINSVILLE   CLEAR     75  75 100 SW8       30.06R
BOWLING GREEN  CLEAR     76  72  87 SW7       30.07R
GLASGOW        PTCLDY    73  73 100 CALM      30.07R
$$

KYZ024-025-028>034-038-045-046-053-221300-
NORTH CENTRAL KENTUCKY

CITY           SKY/WX    TMP DP  RH WIND       PRES   REMARKS
LOUISVILLE/SDF CLOUDY    78  72  81 SW8       30.01R
LOUISVILLE/LOU MOSUNNY   78  72  81 SW6       30.02R
FORT KNOX      MOCLDY    74  74 100 SW6       30.02R
$$

KYZ035>037-039>044-047>052-055>060-089>105-221300-
NORTHEAST KENTUCKY

CITY           SKY/WX    TMP DP  RH WIND       PRES   REMARKS
LEXINGTON      MOSUNNY   76  71  85 S8        30.05R
COVINGTON      CLOUDY    74  71  91 SW6       30.01R
FRANKFORT      PTSUNNY   74  71  91 SW5       30.02R
$$

KYZ054-064>069-076>088-106>120-221300-
SOUTHEAST KENTUCKY

CITY           SKY/WX    TMP DP  RH WIND       PRES   REMARKS
JACKSON        CLOUDY    73  70  90 CALM      30.10R
LONDON         MOSUNNY   71  68  90 CALM      30.11R
SOMERSET       SUNNY     72  72 100 CALM      30.10R
MIDDLESBORO    FOG       69  69 100 CALM      30.13R VSB 1/2
MONTICELLO     MOSUNNY   70  70 100 CALM      30.11R
$$




USA.gov is the U.S. government's official web portal to all federal, state and local government web resources and services.